Weather in Lille

France     50°37′58″N   3°02′19″E
temp.,
°C
wind,
m/s
gust,
m/s
humid.,
%
clouds,
%
prec.,
mm/h
press.,
hPa
HPBL,
m
28 january, thu
thu2801:00+7ssw3799100 0.7 1010227
04:00+7s4899100 4.6 1006282
07:00+10wsw61396100 12.7 1002639
10:00+11w91791100 2.6 1001948
13:00+12w10178287 2.8 10021250
16:00+12w8147997 0.3 1003934
19:00+10w5139198 0.3 1004677
22:00+9sw4996100 0.1 1003362
29 january, fri
fri2901:00+9ssw61295100 1.7 1000515
04:00+10wsw81591100 3.3 997829
07:00+8w71588100 3.4 998826
10:00+9wsw8148461 0.3 9991156
13:00+9wsw9168280 1.3 9981227
16:00+9wnw6117999 0.9 998914
19:00+7wnw4118957 0.9 1002458
22:00+8wnw4108867 0.1 1004473
30 january, sat
sat3001:00+6nw229584 0.3 100476
04:00+5ene4784100 0.0 1003351
07:00+4e71187100 1.5 999461
10:00+2e81391100 4.8 996442
13:00+2e61191100 7.9 995418
16:00+3e4792100 0.8 994272
19:00+3e4692100 0.8 995219
22:00+3e4694100 1.4 995255
31 january, sun
sun3101:00+3ene4694100 3.2 995245
04:00+3ene4793100 0.3 994237
07:00+2ene4792100 0.3 994253
10:00+3ene4793100 0.4 993262
13:00+3ene3693100 0.9 992263
16:00+3ne4692100 0.1 990268
19:00+3ne4793100 0.1 990287
22:00+3ne4793100 0.0 991284
1 february, mon
mon101:00+2ne359498 0.0 993288
04:00+3n2494100 0.0 995241
07:00+3nne2392100 0.0 999183
10:00+3ene1188100 0.0 1001162
13:00+5se117993 0.0 1003406
16:00+6sse127895 0.0 1004476
19:00+5se478497 0.0 1005264
22:00+6sse4991100 0.1 1004400